Home   Weather   Bozeman   Past weeks
Flag for USA

Past Weather in Bozeman, Montana, USA — Yesterday and Last 2 Weeks

Now
43 °F

Clear.


Feels Like: 40 °F
Forecast: 62 / 36 °F
Wind: 5 mph from Southeast

Location: Gallatin Field

Current Time: Oct 17, 2019 at 2:49:59 am

Latest Report: Oct 17, 2019 at 1:56 am


Visibility: 10 mi

Pressure: 29.68 "Hg (24.80 "Hg at 1469m altitude)

Humidity: 49%

Dew Point: 25 °F

Location of BozemanLocation

Past Weather in Bozeman — Graph

°F

Bozeman Temperature Yesterday

Maximum temperature yesterday: 74 °F (at 3:56 pm)
Minimum temperature yesterday: 34 °F (at 5:56 am)
Average temperature yesterday: 50 °F

High & Low Weather Summary for the Past Weeks

 TemperatureHumidityPressure
High74 °F (Oct 16, 3:56 pm)93% (Oct 2, 3:56 am)30.58 "Hg (Oct 2, 3:56 am)
Low13 °F (Oct 11, 7:56 am)12% (Oct 16, 3:56 pm)29.49 "Hg (Oct 8, 4:56 pm)
Average37 °F66%30.13 "Hg
* Reported Oct 2 12:56 am — Oct 17 12:56 am, Bozeman. Weather by CustomWeather, © 2019

Note: Actual official high and low records may vary slightly from our data, if they occured in-between our weather recording intervals... More about our weather records

Advertising

Bozeman Weather History for the Previous 24 Hours

Scroll right to see more
 ConditionsComfort  
Time TempWeatherWind HumidityBarometerVisibility
12:56 am
Thu, Oct 17
38 °FClear.5 mph63%29.73 "Hg10 mi
11:56 pm
Wed, Oct 16
39 °FClear.9 mph62%29.77 "Hg10 mi
10:56 pm44 °FClear.8 mph49%29.78 "Hg10 mi
9:56 pm43 °FClear.10 mph53%29.82 "Hg10 mi
8:56 pm43 °FClear.7 mph56%29.85 "Hg10 mi
7:56 pm52 °FClear.7 mph37%29.85 "Hg10 mi
6:56 pm59 °FClear.10 mph24%29.83 "Hg10 mi
5:56 pm68 °FSunny.8 mph17%29.83 "Hg10 mi
4:56 pm71 °FSunny.12 mph14%29.83 "Hg10 mi
3:56 pm74 °FSunny.14 mph12%29.83 "Hg10 mi
2:56 pm73 °FSunny.13 mph13%29.85 "Hg10 mi
1:56 pm70 °FSunny.3 mph20%29.90 "Hg10 mi
12:56 pm65 °FSunny.No wind27%29.94 "Hg10 mi
11:56 am61 °FSunny.No wind32%29.98 "Hg10 mi
10:56 am56 °FSunny.No wind42%30.02 "Hg10 mi
9:56 am50 °FSunny.5 mph54%30.06 "Hg9 mi
8:56 am42 °FSunny.3 mph71%30.07 "Hg10 mi
7:56 am38 °FSunny.No wind76%30.08 "Hg10 mi
6:56 am36 °FClear.8 mph82%30.07 "Hg10 mi
5:56 am34 °FClear.5 mph88%30.07 "Hg10 mi
4:56 am35 °FClear.3 mph85%30.06 "Hg10 mi
3:56 am40 °FClear.5 mph80%30.04 "Hg10 mi
2:56 am39 °FClear.5 mph79%30.07 "Hg10 mi
Weather by CustomWeather, © 2019

See weather overview